Location: Unspecified
(43.0000°N, 0.0000°E)
Time: 00:59:46
(UTC+00:00)

PicSat - Pass Details

Date: 24 July 2019
Orbit: 486 x 500 km, 97.5° (Epoch: 24 August)

Event Time Altitude Azimuth Distance (km) Brightness Sun altitude
Exits shadow 22:12:25 29° 242° (WSW) 923 ? -22.0°
Maximum altitude 22:13:01 31° 263° (W) 883 ? -22.0°
Drops below altitude 10° 22:16:19 10° 327° (NNW) 1,694 ? -22.3°
Sets 22:18:33 0° 338° (NNW) 2,579 ? -22.5°
